Location: Brno
(49.2000°N, 16.6330°E)
Time: 05:59:32
(UTC+02:00)

BREEZE M DEB (TANK) - Visible Passes

Search period start: 04 May 2015 00:00
Search period end: 14 May 2015 00:00
Orbit: 283 x 12133 km, 49.5° (Epoch: 03 May)

Date Brightness Start Highest point End Pass type
(mag) Time Alt. Az. Time Alt. Az. Time Alt. Az.
04 May 8.1 02:26:43 10° WNW 03:55:33 54° WSW 04:44:42 10° S visible
04 May 8.7 21:29:47 10° WSW 22:19:03 89° N 23:58:25 10° ESE visible
05 May 8.1 01:47:29 10° WNW 03:15:59 61° SW 04:09:28 10° S visible
05 May 8.6 20:52:51 10° WSW 21:35:30 90° S 23:18:43 10° E visible
06 May 8.2 01:08:33 10° WNW 02:35:18 67° SW 03:33:45 10° SSE visible
06 May 8.5 20:16:07 10° WSW 20:53:04 87° SSE 22:38:14 10° E visible
07 May 8.2 00:29:55 10° WNW 01:53:28 72° SW 02:57:34 10° SSE visible
07 May 8.3 19:39:35 10° SW 20:11:46 84° SSE 21:56:55 10° E visible
07 May 8.3 23:51:32 10° WNW 01:10:26 78° SW 02:20:55 10° SSE visible
08 May 8.2 04:19:10 10° NW 05:34:12 28° W 06:10:28 10° SW visible
08 May 8.2 19:03:13 10° SW 19:31:30 80° SSE 21:14:46 10° E visible
08 May 8.4 23:13:23 10° WNW 00:26:20 82° SSW 01:43:48 10° SE visible
09 May 8.2 03:37:52 10° NW 04:57:24 34° W 05:38:28 10° SW visible
09 May 8.5 22:35:28 10° W 23:41:30 86° SSW 01:06:09 10° SE visible
10 May 8.1 02:57:20 10° NW 04:19:53 40° WSW 05:05:15 10° SSW visible
10 May 8.6 21:57:45 10° W 22:56:23 89° SSW 00:27:54 10° SE visible
11 May 8.1 02:17:22 10° NW 03:41:35 46° WSW 04:31:08 10° SSW visible
11 May 8.6 21:20:14 10° W 22:11:30 90° N 23:49:01 10° ESE visible
12 May 8.1 01:37:50 10° WNW 03:02:25 53° WSW 03:56:19 10° S visible
12 May 8.7 20:42:55 10° W 21:27:18 89° N 23:09:24 10° ESE visible
13 May 8.2 00:58:39 10° WNW 02:22:14 59° WSW 03:20:54 10° S visible
13 May 8.5 20:05:46 10° WSW 20:44:04 90° N 22:28:58 10° ESE visible
